Home   Weather   Reno   Past weeks

Flag for USA Past Weather in Reno, Nevada, USA — Yesterday and Last 2 Weeks

Now
70 °F

Passing clouds.


Feels Like: 73 °F
Forecast: 48 / 70 °F
Wind: 7 mph from North

Location: Reno Tahoe International Airport

Current Time: Oct 1, 2016 at 1:43:29 PM

Latest Report: Oct 1, 2016 at 12:55 PM


Visibility: 10 mi

Pressure: 29.92 "Hg (25.52 "Hg at 1372m altitude)

Humidity: 15%

Dew Point: 20 °F

Location of RenoLocation

Past Weather in Reno — Graph

°F

Reno Temperature Yesterday

Maximum temperature yesterday: 79 °F (at 11:55 AM)
Minimum temperature yesterday: 53 °F (at 4:55 AM)
Average temperature yesterday: 66 °F

High & Low Weather Summary for the Past Weeks

 TemperatureHumidityPressure
High91 °F (Sep 18, 3:55 PM)56% (Sep 24, 6:55 AM)30.38 "Hg (Sep 24, 6:55 AM)
Low42 °F (Sep 23, 6:55 AM)8% (Sep 17, 2:55 PM)29.69 "Hg (Sep 21, 7:55 PM)
Average67 °F28%30.01 "Hg
* Reported Sep 16 11:55 AM — Oct 1 11:55 AM, Reno, Weather by CustomWeather, © 2016

Note: Actual official high and low records may vary slightly from our data, if they occured in-between our weather recording intervals... More about our weather records

Advertising

Reno Weather History for the Previous 24 Hours

Scroll right to see more
 ConditionsComfort  
Time TempWeatherWind HumidityBarometerVisibility
11:55 AM
Sat, Oct 1
68 °FPassing clouds.8 mph17%29.95 "Hg10 mi
10:55 AM66 °FPassing clouds.7 mph18%29.98 "Hg10 mi
9:55 AM63 °FPassing clouds.6 mph17%29.99 "Hg10 mi
8:55 AM59 °FPassing clouds.6 mph20%30.00 "Hg10 mi
7:55 AM56 °FPassing clouds.7 mph30%29.98 "Hg10 mi
6:55 AM53 °FPassing clouds.No wind39%29.96 "Hg10 mi
5:55 AM55 °FPassing clouds.5 mph39%29.94 "Hg10 mi
4:55 AM58 °FPassing clouds.5 mph36%29.91 "Hg10 mi
3:55 AM58 °FPassing clouds.8 mph36%29.90 "Hg10 mi
2:55 AM61 °FPassing clouds.9 mph27%29.89 "Hg10 mi
1:55 AM59 °FPassing clouds.9 mph31%29.90 "Hg10 mi
12:55 AM61 °FPassing clouds.9 mph30%29.90 "Hg10 mi
11:55 PM
Fri, Sep 30
63 °FPassing clouds.13 mph29%29.88 "Hg10 mi
10:55 PM60 °FPassing clouds.3 mph36%29.90 "Hg10 mi
9:55 PM63 °FPassing clouds.No wind33%29.89 "Hg10 mi
8:55 PM65 °FPassing clouds.No wind29%29.92 "Hg10 mi
7:55 PM68 °FPassing clouds.5 mph25%29.91 "Hg10 mi
6:55 PM70 °FPassing clouds.8 mph23%29.90 "Hg10 mi
5:55 PM73 °FPassing clouds.17 mph19%29.90 "Hg10 mi
4:55 PM77 °FPassing clouds.21 mph18%29.90 "Hg10 mi
3:55 PM79 °FPassing clouds.17 mph16%29.90 "Hg10 mi
2:55 PM79 °FPassing clouds.15 mph17%29.90 "Hg10 mi
1:55 PM79 °FScattered clouds.16 mph17%29.91 "Hg10 mi
Weather by CustomWeather, © 2016

See weather overviewHow to use our weather pages